TimeCST,TemperatureF,Dew PointF,Humidity,Sea Level PressureIn,VisibilityMPH,Wind Direction,Wind SpeedMPH,Gust SpeedMPH,PrecipitationIn,Events,Conditions,WindDirDegrees,DateUTC
12:12 AM,30.2,26.6,86,29.90,10.0,WNW,10.4,-,N/A,,Clear,300,2013-01-09 06:12:00
12:33 AM,30.2,26.6,86,29.90,10.0,West,8.1,-,N/A,,Clear,270,2013-01-09 06:33:00
12:53 AM,28.4,26.6,93,29.90,10.0,West,11.5,-,N/A,,Clear,270,2013-01-09 06:53:00
1:12 AM,30.2,26.6,86,29.91,10.0,West,11.5,-,N/A,,Clear,270,2013-01-09 07:12:00
1:33 AM,30.2,24.8,80,29.92,10.0,West,11.5,-,N/A,,Clear,280,2013-01-09 07:33:00
1:53 AM,30.2,24.8,80,29.93,10.0,West,15.0,-,N/A,,Clear,280,2013-01-09 07:53:00
2:12 AM,30.2,24.8,80,29.94,10.0,WNW,17.3,-,N/A,,Clear,290,2013-01-09 08:12:00
2:33 AM,30.2,24.8,80,29.95,10.0,WNW,17.3,-,N/A,,Clear,300,2013-01-09 08:33:00
2:53 AM,30.2,24.8,80,29.96,10.0,WNW,17.3,-,N/A,,Clear,300,2013-01-09 08:53:00
3:12 AM,30.2,24.8,80,29.97,10.0,WNW,18.4,-,N/A,,Clear,300,2013-01-09 09:12:00
3:33 AM,30.2,24.8,80,29.99,10.0,NW,19.6,-,N/A,,Clear,310,2013-01-09 09:33:00
3:52 AM,30.2,24.8,80,30.00,10.0,NW,18.4,23.0,N/A,,Clear,310,2013-01-09 09:52:00
4:12 AM,30.2,23.0,75,30.01,10.0,NW,20.7,25.3,N/A,,Clear,310,2013-01-09 10:12:00
4:33 AM,30.2,23.0,75,30.02,10.0,NW,18.4,-,N/A,,Clear,310,2013-01-09 10:33:00
4:52 AM,30.2,21.2,69,30.04,10.0,NW,18.4,24.2,N/A,,Clear,310,2013-01-09 10:52:00
5:13 AM,28.4,21.2,74,30.05,10.0,NW,19.6,-,N/A,,Clear,310,2013-01-09 11:13:00
5:32 AM,28.4,21.2,74,30.06,10.0,NW,17.3,24.2,N/A,,Clear,310,2013-01-09 11:32:00
5:53 AM,28.4,21.2,74,30.07,10.0,NW,15.0,23.0,N/A,,Clear,320,2013-01-09 11:53:00
6:13 AM,28.4,19.4,69,30.08,10.0,NW,16.1,-,N/A,,Clear,320,2013-01-09 12:13:00
6:32 AM,26.6,19.4,74,30.09,10.0,NW,15.0,-,N/A,,Clear,320,2013-01-09 12:32:00
6:53 AM,26.6,19.4,74,30.10,10.0,NW,12.7,-,N/A,,Clear,320,2013-01-09 12:53:00
7:12 AM,24.8,19.4,80,30.12,10.0,NW,11.5,-,N/A,,Clear,310,2013-01-09 13:12:00
7:33 AM,24.8,19.4,80,30.13,10.0,NW,11.5,-,N/A,,Clear,310,2013-01-09 13:33:00
7:53 AM,24.8,17.6,74,30.13,10.0,NW,9.2,-,N/A,,Clear,320,2013-01-09 13:53:00
8:12 AM,21.2,17.6,86,30.15,10.0,NW,11.5,-,N/A,,Clear,310,2013-01-09 14:12:00
8:33 AM,21.2,17.6,86,30.16,10.0,NNW,10.4,-,N/A,,Clear,330,2013-01-09 14:33:00
8:53 AM,24.8,17.6,74,30.16,10.0,NNW,12.7,-,N/A,,Clear,340,2013-01-09 14:53:00
9:12 AM,24.8,17.6,74,30.17,10.0,NNW,11.5,-,N/A,,Clear,330,2013-01-09 15:12:00
9:33 AM,24.8,17.6,74,30.17,10.0,NNW,11.5,-,N/A,,Clear,340,2013-01-09 15:33:00
9:53 AM,24.8,17.6,74,30.17,10.0,NNW,11.5,-,N/A,,Clear,340,2013-01-09 15:53:00
10:12 AM,26.6,19.4,74,30.18,10.0,North,6.9,-,N/A,,Clear,350,2013-01-09 16:12:00
10:33 AM,26.6,19.4,74,30.18,10.0,North,8.1,-,N/A,,Clear,360,2013-01-09 16:33:00
11:13 AM,28.4,19.4,69,30.22,10.0,NNW,9.2,-,N/A,,Clear,330,2013-01-09 17:13:00
11:33 AM,28.4,19.4,69,30.24,10.0,NW,8.1,-,N/A,,Clear,310,2013-01-09 17:33:00
11:52 AM,28.4,21.2,74,30.25,10.0,WNW,8.1,-,N/A,,Clear,300,2013-01-09 17:52:00
12:13 PM,28.4,21.2,74,30.26,10.0,NW,8.1,-,N/A,,Clear,310,2013-01-09 18:13:00
12:33 PM,30.2,21.2,69,30.26,10.0,WNW,4.6,-,N/A,,Clear,300,2013-01-09 18:33:00
12:52 PM,28.4,21.2,74,30.27,10.0,WNW,6.9,-,N/A,,Clear,290,2013-01-09 18:52:00
1:13 PM,28.4,21.2,74,30.27,10.0,WNW,5.8,-,N/A,,Clear,290,2013-01-09 19:13:00
1:33 PM,30.2,21.2,69,30.28,10.0,West,5.8,-,N/A,,Clear,260,2013-01-09 19:33:00
1:52 PM,30.2,21.2,69,30.28,10.0,West,4.6,-,N/A,,Clear,260,2013-01-09 19:52:00
2:13 PM,30.2,21.2,69,30.28,10.0,West,3.5,-,N/A,,Clear,280,2013-01-09 20:13:00
2:33 PM,30.2,21.2,69,30.29,10.0,SW,3.5,-,N/A,,Clear,230,2013-01-09 20:33:00
2:52 PM,30.2,21.2,69,30.31,10.0,WSW,8.1,-,N/A,,Clear,240,2013-01-09 20:52:00
3:13 PM,28.4,21.2,74,30.30,10.0,SSW,3.5,-,N/A,,Clear,200,2013-01-09 21:13:00
3:32 PM,30.2,21.2,69,30.29,10.0,South,3.5,-,N/A,,Clear,170,2013-01-09 21:32:00
3:52 PM,30.2,21.2,69,30.28,10.0,South,3.5,-,N/A,,Clear,170,2013-01-09 21:52:00
4:13 PM,30.2,21.2,69,30.29,10.0,South,5.8,-,N/A,,Clear,170,2013-01-09 22:13:00
4:33 PM,28.4,21.2,74,30.28,10.0,SSE,8.1,-,N/A,,Clear,160,2013-01-09 22:33:00
4:52 PM,28.4,21.2,74,30.27,10.0,SSE,8.1,-,N/A,,Clear,160,2013-01-09 22:52:00
5:13 PM,26.6,19.4,74,30.25,10.0,SE,8.1,-,N/A,,Clear,140,2013-01-09 23:13:00
5:33 PM,26.6,19.4,74,30.25,10.0,SSE,6.9,-,N/A,,Clear,160,2013-01-09 23:33:00
5:53 PM,28.4,19.4,69,30.24,10.0,SSE,5.8,-,N/A,,Clear,160,2013-01-09 23:53:00
6:13 PM,26.6,19.4,74,30.24,10.0,SSE,10.4,-,N/A,,Clear,160,2013-01-10 00:13:00
6:32 PM,26.6,21.2,80,30.23,10.0,SSE,10.4,-,N/A,,Clear,160,2013-01-10 00:32:00
6:53 PM,26.6,19.4,74,30.23,10.0,South,10.4,-,N/A,,Clear,170,2013-01-10 00:53:00
7:13 PM,24.8,19.4,80,30.23,10.0,South,10.4,-,N/A,,Clear,170,2013-01-10 01:13:00
7:32 PM,24.8,19.4,80,30.22,10.0,South,11.5,-,N/A,,Clear,170,2013-01-10 01:32:00
7:53 PM,24.8,19.4,80,30.21,10.0,South,12.7,-,N/A,,Clear,170,2013-01-10 01:53:00
8:13 PM,26.6,21.2,80,30.21,10.0,South,16.1,19.6,N/A,,Clear,180,2013-01-10 02:13:00
8:32 PM,26.6,21.2,80,30.20,10.0,South,13.8,-,N/A,,Clear,180,2013-01-10 02:32:00
8:53 PM,26.6,21.2,80,30.20,10.0,South,13.8,-,N/A,,Clear,180,2013-01-10 02:53:00
9:13 PM,26.6,21.2,80,30.18,10.0,South,11.5,-,N/A,,Clear,170,2013-01-10 03:13:00
9:33 PM,28.4,23.0,80,30.17,10.0,South,17.3,-,N/A,,Clear,180,2013-01-10 03:33:00
9:52 PM,28.4,23.0,80,30.15,10.0,South,16.1,-,N/A,,Clear,180,2013-01-10 03:52:00
10:13 PM,28.4,23.0,80,30.14,10.0,South,13.8,-,N/A,,Clear,180,2013-01-10 04:13:00
10:33 PM,26.6,23.0,86,30.15,10.0,South,13.8,-,N/A,,Clear,180,2013-01-10 04:33:00
10:52 PM,28.4,23.0,80,30.15,10.0,South,12.7,-,N/A,,Clear,180,2013-01-10 04:52:00
11:10 PM,28.4,23.0,80,30.16,10.0,South,12.7,-,N/A,,Clear,180,2013-01-10 05:10:00
11:33 PM,28.4,24.8,86,30.15,10.0,South,12.7,-,N/A,,Clear,180,2013-01-10 05:33:00
11:53 PM,28.4,24.8,86,30.14,10.0,South,10.4,-,N/A,,Clear,180,2013-01-10 05:53:00